FW0338 Weather Reports


time (UTC)temp
C
wind
direction
speed
KPH
gust
KPH
rain 1hr
cm
rain 24hr
cm
rain mn
cm
humidity
%
barometer
mb
20260502204519 22 44 6.4 14.5 0.00 2.26 0.28 49 1015.9
20260502204014 22 0 6.4 14.5 0.00 2.34 0.28 51 1016.0
20260502203510 22 28 4.8 14.5 0.00 2.39 0.28 51 1016.1
20260502203005 22 313 6.4 14.5 0.00 2.44 0.28 50 1016.2
20260502202502 22 9 6.4 17.7 0.00 2.59 0.28 49 1016.3
20260502202003 22 200 8.0 17.7 0.00 2.59 0.28 51 1016.4
20260502201503 22 152 4.8 17.7 0.00 2.59 0.28 50 1016.1
20260502201002 22 252 6.4 17.7 0.00 2.59 0.28 51 1016.3
20260502200502 22 26 4.8 12.9 0.00 2.59 0.28 52 1016.3
20260502200001 22 64 4.8 14.5 0.00 2.59 0.28 54 1016.4
20260502195503 22 284 6.4 14.5 0.00 2.59 0.28 52 1016.5
20260502195002 22 335 3.2 12.9 0.00 2.59 0.28 52 1016.4
20260502194502 22 313 6.4 12.9 0.00 2.59 0.28 52 1016.6
20260502194002 22 62 3.2 12.9 0.00 2.59 0.28 52 1016.5
20260502193503 22 5 3.2 9.7 0.00 2.59 0.28 53 1016.6
20260502193002 22 73 3.2 16.1 0.00 2.59 0.28 53 1016.5
20260502192502 22 318 3.2 16.1 0.00 2.59 0.28 49 1016.6
20260502192002 21 106 4.8 14.5 0.00 2.59 0.28 53 1016.5
20260502191504 21 303 4.8 19.3 0.00 2.59 0.28 54 1016.5
20260502191004 21 0 8.0 19.3 0.00 2.59 0.28 53 1016.6
20260502190504 21 36 4.8 19.3 0.00 2.59 0.28 55 1016.5
20260502190003 21 313 6.4 14.5 0.00 2.59 0.28 52 1016.5
20260502185503 21 352 8.0 14.5 0.00 2.59 0.28 53 1016.7
20260502185003 21 0 3.2 14.5 0.00 2.59 0.28 51 1016.6
20260502184503 21 13 6.4 14.5 0.00 2.59 0.28 53 1016.7
20260502184003 21 72 6.4 14.5 0.00 2.59 0.28 52 1016.8
20260502183953 21 268 8.0 14.5 0.00 2.59 0.28 52 1016.9
20260502183003 21 311 4.8 16.1 0.00 2.59 0.28 56 1017.0
20260502182503 21 42 4.8 20.9 0.00 2.59 0.28 53 1017.0
20260502182003 21 107 6.4 20.9 0.00 2.59 0.28 52 1017.1
20260502181504 21 26 6.4 17.7 0.00 2.59 0.28 54 1017.2
20260502181003 21 348 8.0 17.7 0.00 2.59 0.28 53 1017.2
20260502180730 21 5 3.2 20.9 0.00 2.59 0.28 54 1017.2
20260502180231 21 329 4.8 20.9 0.00 2.59 0.28 54 1017.3
20260502170224 20 59 6.4 20.9 0.00 2.59 0.28 59 1017.5
20260502163958 20 317 6.4 16.1 0.00 2.59 0.28 64 1017.5
20260502163454 20 317 3.2 14.5 0.00 2.59 0.28 66 1017.5
20260502162948 20 5 4.8 17.7 0.00 2.59 0.28 66 1017.5
20260502162445 20 51 4.8 17.7 0.00 2.59 0.28 65 1017.3
20260502161938 19 38 6.4 14.5 0.00 2.59 0.28 67 1017.4
20260502161435 20 317 4.8 12.9 0.00 2.59 0.28 72 1017.4
20260502160930 19 38 3.2 9.7 0.00 2.59 0.28 73 1017.3
20260502160429 19 344 3.2 9.7 0.00 2.59 0.28 75 1017.4
20260502160150 19 55 3.2 12.9 0.00 2.59 0.28 74 1017.3
20260502151929 17 334 6.4 12.9 0.00 2.59 0.28 79 1017.1
20260502151429 17 15 3.2 9.7 0.00 2.59 0.28 82 1017.0
20260502150929 17 319 3.2 6.4 0.00 2.59 0.28 84 1017.0
20260502150432 17 344 3.2 11.3 0.00 2.59 0.28 82 1016.9
20260502130428 13 0 1.6 6.4 0.00 2.59 0.28 99 1015.4
20260502123429 12 329 3.2 6.4 0.00 2.59 0.28 99 1015.6
20260502122929 12 344 3.2 6.4 0.00 2.59 0.28 99 1015.7
20260502122428 12 0 1.6 3.2 0.00 2.59 0.28 99 1015.3
20260502121929 12 17 1.6 6.4 0.00 2.59 0.28 99 1015.4
20260502121429 12 32 0.0 6.4 0.00 2.59 0.28 99 1015.2
20260502121154 11 22 1.6 3.2 0.00 2.59 0.28 99 1015.3
20260502120650 11 341 1.6 4.8 0.00 2.59 0.28 99 1015.2
20260502120419 11 323 3.2 4.8 0.00 2.59 0.28 99 1015.1
20260502115652 11 14 0.0 4.8 0.00 2.59 0.28 99 1015.2
20260502114929 11 355 1.6 4.8 0.00 2.59 0.28 99 1015.1
20260502114428 11 0 0.0 1.6 0.00 2.59 0.28 98 1015.1
20260502113930 11 0 0.0 1.6 0.00 2.59 0.28 98 1015.0
20260502113648 11 0 0.0 1.6 0.00 2.59 0.28 98 1014.9
20260502112929 11 0 0.0 3.2 0.00 2.59 0.28 98 1014.7
20260502112428 11 0 0.0 3.2 0.00 2.59 0.28 99 1014.5
20260502112417 11 0 1.6 3.2 0.00 2.59 0.28 99 1014.6
20260502111429 11 0 0.0 3.2 0.00 2.59 0.28 99 1014.4
20260502110928 11 0 1.6 4.8 0.00 2.59 0.28 99 1014.3
20260502110652 11 352 1.6 4.8 0.00 2.59 0.28 99 1014.3
20260502110153 11 0 1.6 4.8 0.00 2.59 0.28 99 1014.2
20260502105431 11 5 0.0 4.8 0.00 2.59 0.28 98 1014.1
20260502105156 11 5 1.6 4.8 0.00 2.82 0.28 98 1014.1
20260502104917 11 316 0.0 3.2 0.00 2.82 0.28 98 1014.0
20260502103932 11 315 0.0 3.2 0.00 2.82 0.28 98 1014.0
20260502103432 11 352 0.0 3.2 0.00 2.82 0.28 98 1013.8
20260502102931 11 333 0.0 4.8 0.00 2.82 0.28 98 1013.7
20260502102431 11 332 0.0 4.8 0.00 2.82 0.28 98 1013.9
20260502102151 11 329 1.6 4.8 0.00 2.82 0.28 99 1013.8
20260502101431 11 355 0.0 6.4 0.00 2.82 0.28 98 1013.9
20260502100931 11 5 1.6 6.4 0.00 2.82 0.28 98 1013.9
20260502100431 11 5 0.0 3.2 0.00 2.82 0.28 98 1013.8
20260502091429 11 45 0.0 3.2 0.00 2.84 0.28 99 1013.5
20260502091148 11 45 1.6 3.2 0.00 2.84 0.28 99 1013.7
20260502090429 11 43 0.0 3.2 0.00 2.84 0.28 99 1013.7
20260502070928 11 33 1.6 4.8 0.10 2.87 0.28 98 1014.0
20260502070650 11 93 1.6 6.4 0.13 2.87 0.28 98 1014.0
20260502065928 11 5 0.0 9.7 0.13 2.74 0.28 98 1014.1
20260502065429 11 312 1.6 9.7 0.15 2.74 0.28 98 1014.1
20260502065151 11 292 1.6 4.8 0.13 2.74 0.25 98 1014.0
20260502064429 11 34 0.0 6.4 0.13 2.74 0.25 98 1013.8
20260502063929 11 33 1.6 6.4 0.13 2.74 0.25 98 1013.9
20260502063429 11 346 0.0 6.4 0.13 2.74 0.23 98 1013.9
20260502062929 11 298 0.0 9.7 0.13 2.77 0.23 98 1014.0
20260502062429 11 341 3.2 9.7 0.13 2.77 0.20 98 1013.8
20260502061929 11 331 3.2 14.5 0.15 2.77 0.20 98 1013.8
20260502061429 11 74 4.8 14.5 0.15 2.77 0.20 98 1014.0
20260502060929 11 225 3.2 8.0 0.15 2.77 0.18 98 1014.1
20260502060428 11 13 3.2 11.3 0.15 2.77 0.15 98 1013.7
20260502055928 11 348 4.8 17.7 0.15 2.62 0.13 98 1014.1
20260502055429 11 355 3.2 17.7 0.13 2.62 0.13 98 1013.8
20260502054929 11 331 3.2 14.5 0.13 2.62 0.13 98 1013.6
20260502054430 11 0 3.2 14.5 0.15 2.62 0.13 98 1013.4
20260502053931 11 330 1.6 9.7 0.15 2.62 0.13 98 1013.3
20260502053430 11 9 4.8 12.9 0.13 2.62 0.10 98 1012.9
20260502053151 11 113 3.2 12.9 0.13 2.62 0.10 98 1012.9
20260502052430 11 327 3.2 9.7 0.13 2.62 0.08 98 1013.8
20260502051930 11 340 3.2 9.7 0.10 2.62 0.05 98 1013.8
20260502051430 11 333 3.2 8.0 0.13 2.62 0.05 98 1013.7
20260502050931 11 16 3.2 11.3 0.13 2.64 0.03 98 1013.4
20260502050430 11 5 3.2 11.3 0.13 2.64 0.00 98 1013.7
20260502045930 11 355 3.2 6.4 0.18 2.46 2.64 98 1013.6
20260502045430 11 314 3.2 8.0 0.23 2.46 2.64 98 1013.6
20260502044930 11 86 3.2 8.0 0.25 2.46 2.64 98 1013.3
20260502044429 11 323 3.2 12.9 0.25 2.46 2.62 98 1013.4
20260502043930 11 15 3.2 12.9 0.28 2.46 2.62 98 1013.6
20260502043431 11 302 1.6 4.8 0.28 2.46 2.62 98 1013.9
20260502042930 11 346 3.2 4.8 0.28 2.46 2.62 98 1014.0
20260502042431 11 304 1.6 8.0 0.25 2.46 2.59 98 1013.9
20260502041930 11 296 1.6 8.0 0.25 2.46 2.59 98 1013.8
20260502041853 11 300 3.2 8.0 0.23 2.46 2.57 98 1014.0
20260502041847 11 311 1.6 4.8 0.20 2.46 2.54 98 1014.1
20260502040421 11 333 0.0 3.2 0.20 2.46 2.49 98 1014.1
20260502035917 11 38 0.0 6.4 0.15 2.31 2.44 98 1014.2
20260502035413 11 42 1.6 9.7 0.10 2.34 2.41 98 1014.0
20260502034907 11 304 3.2 9.7 0.08 2.34 2.36 98 1014.1
20260502034403 11 74 1.6 12.9 0.05 2.34 2.34 98 1014.0
20260502033904 11 311 3.2 17.7 0.03 2.34 2.34 98 1014.0
20260502033403 11 174 1.6 17.7 0.03 2.34 2.34 98 1013.4
20260502032903 11 46 3.2 6.4 0.03 2.34 2.34 98 1013.5
20260502032403 11 304 3.2 12.9 0.03 2.34 2.34 98 1013.6
20260502031903 11 28 1.6 12.9 0.03 2.34 2.34 98 1013.5
20260502031403 11 334 3.2 9.7 0.03 2.34 2.34 98 1013.6
20260502031125 11 53 3.2 9.7 0.03 2.34 2.34 98 1013.6
20260502030403 11 312 3.2 9.7 0.00 2.34 2.31 98 1013.6
20260502030127 11 34 3.2 12.9 0.00 2.34 2.31 98 1013.6
20260502025629 11 78 1.6 12.9 0.00 2.34 2.31 98 1013.7
20260502024902 11 308 1.6 11.3 0.00 2.34 2.31 98 1013.6
20260502024403 11 82 3.2 11.3 0.00 2.36 2.31 98 1013.4
20260502023903 11 338 3.2 14.5 0.00 2.36 2.31 98 1013.2
20260502023633 11 51 3.2 14.5 0.00 2.36 2.31 98 1013.0
20260502022904 11 267 3.2 8.0 0.00 2.36 2.31 98 1012.8
20260502022630 11 278 3.2 8.0 0.00 2.36 2.31 98 1012.7
20260502021903 11 334 3.2 19.3 0.00 2.36 2.31 98 1012.6
20260502021403 11 337 3.2 19.3 0.00 2.36 2.31 98 1012.4
20260502021124 12 344 3.2 12.9 0.00 2.36 2.31 98 1012.4
20260502020403 12 13 3.2 12.9 0.00 2.36 2.31 98 1012.3
20260502015903 12 14 1.6 12.9 0.00 2.36 2.31 98 1012.2
20260502015402 12 348 3.2 8.0 0.00 2.36 2.31 98 1011.8
20260502014902 12 315 3.2 12.9 0.00 2.36 2.31 98 1011.5
20260502014403 11 26 1.6 12.9 0.00 2.39 2.31 98 1011.6
20260502013903 11 310 3.2 9.7 0.00 2.39 2.31 98 1011.7
20260502013404 11 13 6.4 12.9 0.00 2.39 2.31 98 1011.7
20260502012904 11 302 3.2 14.5 0.00 2.39 2.31 98 1011.4
20260502012403 11 287 3.2 14.5 0.00 2.39 2.31 98 1011.7
20260502011903 11 324 3.2 11.3 0.03 2.39 2.31 98 1011.5
20260502011403 12 5 3.2 11.3 0.03 2.39 2.31 98 1011.2
20260502010903 12 336 3.2 12.9 0.05 2.39 2.31 98 1011.0
20260502010403 12 336 3.2 12.9 0.05 2.39 2.31 98 1010.9
20260502005903 12 34 6.4 12.9 0.08 2.31 2.31 98 1011.0
20260502005403 12 67 3.2 9.7 0.10 2.31 2.31 98 1011.3
20260502004904 12 346 4.8 12.9 0.13 2.36 2.31 98 1011.2
20260502004402 12 344 3.2 12.9 0.18 2.36 2.31 98 1011.0
20260502003902 12 355 3.2 11.3 0.20 2.36 2.31 98 1010.9
20260502003402 12 19 3.2 6.4 0.25 2.36 2.31 98 1011.0
20260502002903 12 315 1.6 6.4 0.28 2.36 2.31 98 1011.2
20260502002626 12 313 1.6 8.0 0.30 2.36 2.31 98 1011.6
20260502001903 12 5 3.2 9.7 0.30 2.36 2.29 98 1011.8
20260502001404 12 23 1.6 9.7 0.33 2.36 2.29 98 1011.7
20260502000903 12 336 1.6 9.7 0.33 2.36 2.26 98 1011.6
20260502000404 12 309 4.8 9.7 0.38 2.36 2.26 98 1011.7
20260501235903 12 336 1.6 14.5 0.41 1.93 2.24 98 1011.8
20260501235403 12 0 4.8 14.5 0.43 1.96 2.21 98 1012.0
20260501234903 12 0 0.0 4.8 0.48 1.96 2.16 98 1012.1
20260501234404 12 0 1.6 6.4 0.51 1.96 2.13 98 1012.2
20260501233902 12 25 0.0 6.4 0.51 1.96 2.08 98 1012.2
20260501233402 12 321 0.0 4.8 0.51 1.96 2.06 98 1012.2
20260501233124 12 326 0.0 4.8 0.53 1.96 2.03 98 1012.3
20260501232403 12 24 0.0 0.0 0.58 1.96 2.01 98 1012.2
20260501231903 12 24 0.0 0.0 0.64 1.96 1.98 98 1012.0
20260501231403 12 24 0.0 1.6 0.66 1.96 1.96 98 1011.8
20260501230903 12 24 0.0 3.2 0.66 1.96 1.93 98 1011.5
20260501230622 12 24 1.6 3.2 0.64 1.98 1.85 98 1011.3
20260501225903 12 28 0.0 3.2 0.64 1.35 1.80 98 1011.1
20260501225621 12 30 1.6 4.8 0.61 1.35 1.75 98 1011.1
20260501224903 12 317 1.6 4.8 0.58 1.35 1.70 98 1011.1
20260501224403 12 51 0.0 4.8 0.53 1.35 1.63 98 1011.3
20260501223903 12 325 1.6 4.8 0.53 1.35 1.57 98 1011.1
20260501223403 12 346 0.0 6.4 0.48 1.35 1.55 98 1011.5
20260501223130 12 325 1.6 6.4 0.46 1.35 1.47 98 1011.4
20260501222629 12 25 1.6 11.3 0.41 1.35 1.40 98 1011.5
20260501222129 12 0 3.2 11.3 0.33 1.35 1.35 98 1010.9
20260501221403 12 59 3.2 12.9 0.30 1.37 1.30 98 1010.6
20260501220904 12 74 6.4 17.7 0.28 1.37 1.27 98 1010.5
20260501220403 12 86 3.2 17.7 0.28 1.37 1.22 98 1010.2
20260501220120 12 178 4.8 12.9 0.30 1.09 1.19 98 1010.4
20260501215404 12 200 1.6 9.7 0.38 1.09 1.17 98 1010.3
20260501214903 12 138 3.2 9.7 0.41 1.09 1.12 98 1009.9
20260501214403 12 291 3.2 9.7 0.48 1.09 1.09 98 1009.6
20260501213903 12 24 3.2 8.0 0.51 1.09 1.07 98 1010.0
20260501213403 12 281 3.2 17.7 0.56 1.09 1.07 98 1010.0
20260501212902 12 105 3.2 17.7 0.71 1.09 1.04 98 1009.8
20260501212404 13 11 3.2 14.5 0.69 1.09 1.02 98 1010.0
20260501211903 13 45 6.4 14.5 0.69 1.12 1.02 98 1010.2
20260501211404 13 309 6.4 16.1 0.66 1.12 0.99 98 1010.1
20260501210903 13 63 4.8 16.1 0.66 1.12 0.99 98 1009.8
20260501210404 13 0 4.8 16.1 0.64 1.12 0.94 98 1009.8
20260501205903 13 15 1.6 12.9 0.56 0.53 0.86 98 1009.8
20260501205403 13 56 1.6 9.7 0.46 0.53 0.79 98 1010.0
20260501204903 13 42 3.2 12.9 0.38 0.53 0.69 98 1010.1